Regional Weather Roundup
Issued by NWS

Home | Current Version | Previous Version | Text Only | Print | Product List | Glossary Off
Versions: 1 2 3 4 5 6 7 8 9 10 11 12 13 14 15 16 17 18 19 20 21 22 23 24 25 26 27 28 29 30 31 32 33 34 35 36 37 38 39 40 41 42 43 44 45 46 47 48 49 50

000
ASUS43 KOAX 160110
RWRNE

WEATHER ROUNDUP FOR NEBRASKA
NATIONAL WEATHER SERVICE OMAHA NE
800 PM CDT TUE AUG 15 2017

NOTES: SATELLITE DATA IS BEING USED TO AUGMENT CLOUD COVER ABOVE
       12000 FEET.
       "FAIR" INDICATES FEW OR NO CLOUDS BELOW 12,000 FEET WITH NO
       SIGNIFICANT WEATHER AND/OR OBSTRUCTIONS TO VISIBILITY.


NEZ001>004-019>022-054>056-160200-
NEBRASKA PANHANDLE

CITY           SKY/WX    TMP DP  RH WIND       PRES   REMARKS
SCOTTSBLUFF    LGT RAIN  65  60  84 SE17      29.90R
ALLIANCE       CLOUDY    63  56  78 W32G40    29.87R
CHADRON        TSTM      66  59  78 W14G28    29.87R
GORDON         FAIR      75  62  63 N12G18    29.81R
KIMBALL        RAIN      63  53  69 N18G29    29.93R
SIDNEY         CLOUDY    65  57  75 W21G35    29.87R THUNDER
$$

NEZ057>060-069>072-079>082-160200-
SOUTHWEST NEBRASKA

CITY           SKY/WX    TMP DP  RH WIND       PRES   REMARKS
NORTH PLATTE   MOCLDY    82  66  58 S5        29.73R
IMPERIAL       CLOUDY    82  60  47 S12       29.75R
LEXINGTON      CLEAR     82  68  63 E12       29.75R
MCCOOK         CLEAR     84  62  47 S9        29.71F
OGALLALA       CLOUDY    75  65  71 CALM      29.76S
$$

NEZ005>010-023>029-035>040-094-160200-
NORTH CENTRAL NEBRASKA

CITY           SKY/WX    TMP DP  RH WIND       PRES   REMARKS
VALENTINE      CLOUDY    76  66  71 E14       29.77F
AINSWORTH      CLOUDY    70  66  88 E14       29.81R
BROKEN BOW     LGT RAIN  66  63  90 N16G24    29.82R
O`NEILL        CLOUDY    64  62  91 SE9G21    29.79F
ORD            RAIN      66  63  90 E13G24    29.79F FOG
THEDFORD       TSTM      71  68  90 SE16      29.79R
$$

NEZ041-046>049-061>064-073>077-083>087-160200-
SOUTH CENTRAL NEBRASKA

CITY           SKY/WX    TMP DP  RH WIND       PRES   REMARKS
GRAND ISLAND   MOCLDY    73  64  73 NE12      29.81S
AURORA         CLOUDY    71  66  82 NE8       29.81R
HASTINGS       CLOUDY    83  69  62 SE10G20   29.78R
HEBRON         CLOUDY    85  68  57 SE13      29.78R
HOLDREGE       CLEAR     79  69  70 E8        29.75S
KEARNEY        PTCLDY    80  70  71 E9        29.77R
YORK           PTCLDY    72  64  78 NE17      29.82R
$$

NEZ011>018-030>034-042>045-160200-
NORTHEAST NEBRASKA

CITY           SKY/WX    TMP DP  RH WIND       PRES   REMARKS
NORFOLK        TSTM      66  63  90 NW10      29.87R
ALBION         RAIN      69  65  86 N8        29.88R
BLAIR          CLOUDY    68  66  92 N16       29.88S
COLUMBUS       LGT RAIN  67  66  97 E9        29.82F
FREMONT        TSTM      68  67  96 CALM      29.87R
TEKAMAH        TSTM      67  65  93 E10       29.86F
WAYNE          LGT RAIN  65  63  91 SE9       29.85R
$$

NEZ050>053-065>068-078-088>093-160200-
SOUTHEAST NEBRASKA

CITY           SKY/WX    TMP DP  RH WIND       PRES   REMARKS
LINCOLN        MOCLDY    84  69  60 E12       29.80R
OMAHA EPPLEY   CLOUDY    72  64  76 N18G29    29.86R
BEATRICE       CLEAR     85  69  58 S13       29.79R
FALLS CITY     PTCLDY    80  70  71 SE7       29.81R
NEBRASKA CITY  CLEAR     81  72  73 SE5       29.83R
PLATTSMOUTH    MOCLDY    78  70  76 E9        29.84R
$$

NEZ044-045-051>053-067-160200-
OMAHA AREA

CITY           SKY/WX    TMP DP  RH WIND       PRES   REMARKS
OMAHA EPPLEY   CLOUDY    72  64  76 N18G29    29.86R
BLAIR          CLOUDY    68  66  92 N16       29.88S
FREMONT        TSTM      68  67  96 CALM      29.87R
MILLARD        CLOUDY    74  66  77 N9G21     29.86R
OFFUTT AFB     MOCLDY    79  71  75 NE8       29.83R
PLATTSMOUTH    MOCLDY    78  70  76 E9        29.84R
WAHOO          CLOUDY    70  66  88 NE10      29.84S
$$




USA.gov is the U.S. government's official web portal to all federal, state and local government web resources and services.